www.pogodaiklimat.ru

Погода и климат >> Архив погоды >> Казахстан >> Опорная


ПОГОДА в Опорной

  • Прогноз погоды в Опорной
  • Монитор погоды в Опорной

АРХИВ ПОГОДЫ в Опорной

Время (UTC), дата Ветер
(напр.,м/с)
 
Видим.   Явления Облачность Т
(С)
Тd
(С)
f
(%)
Тe
(С)
Тes
(С)
Комфортность P
(гПа)
Po
(гПа)
Тmin
(С)
Tmax
(С)
R
(мм)
R24
(мм)
S
(см)
12 8.09 СВ 4 50 км 6/6 1000 м
[Cu med, cong]
+24.3 -1.4 18 +23 +24 комфорт 1020.4
15 8.09 СВ 3 50 км 4/3 1000 м
[Cu med, cong Ci ing]
+22.0 -0.7 22 +21 +21 комфорт 1021.0 +24.6
00 9.09 штиль 0 н/о ясно +12.4 +1.1 46 +12 +12 1023.3
03 9.09 СВ 1 50 км ясно +10.8 +0.9 50 +11 +12 1024.7
06 9.09 штиль 0 50 км ясно +20.5 +5.3 37 +21 +32 комфорт 1025.7 +10.7
09 9.09 С 1 50 км ясно +23.5 +4.3 29 +23 +37 комфорт 1024.9
12 9.09 СВ 1 50 км 4/1 600 м
[Cu hum]
+24.4 +3.0 25 +24 +27 комфорт 1023.8
15 9.09 С 1 50 км 3/0
[Ac lent]
+23.0 +2.7 26 +23 +23 комфорт 1023.7 +24.8
18 9.09 С 1 н/о ясно +19.0 +1.3 31 +20 +20 1024.9 +24.8
21 9.09 С 1 н/о ясно +15.8 +5.4 50 +17 +17 1025.4
00 10.09 штиль 0 н/о ясно +12.5 +3.0 52 +12 +12 1025.3
03 10.09 СВ 1 50 км ясно +12.0 +2.9 54 +12 +13 1026.0
06 10.09 В 2 50 км ясно +21.8 +2.3 28 +22 +30 комфорт 1026.8 +11.5
09 10.09 СВ 2 50 км ясно +25.0 +3.0 24 +24 +36 комфорт 1026.2
12 10.09 В 2 50 км ясно +25.7 +2.1 22 +24 +29 комфорт 1025.1
15 10.09 штиль 0 50 км ясно +24.0 +1.9 23 +23 +23 комфорт 1024.9 +26.1
18 10.09 СВ 1 н/о ясно +20.0 +2.1 30 +21 +21 комфорт 1025.3 +26.1
21 10.09 СВ 1 н/о ясно +16.8 +2.1 37 +18 +18 1025.8
00 11.09 штиль 0 н/о ясно +15.0 +4.3 49 +15 +15 1025.1
03 11.09 штиль 0 50 км 8/8 1000 м
[Sc]
+15.3 +5.5 52 +15 +15 1025.9
06 11.09 В 1 50 км 9/0
[Ac trans]
+20.4 +1.3 28 +22 +26 комфорт 1027.0 +14.6
09 11.09 В 1 50 км 6/0
[Ac trans]
+26.4 +3.8 23 +25 +34 комфорт 1026.6
12 11.09 В 2 50 км 5/0
[Ac trans]
+26.0 +2.7 22 +25 +28 комфорт 1026.1
15 11.09 В 2 50 км 8/0
[Ac trans]
+25.5 +3.0 23 +24 +24 комфорт 1026.0 +26.8
18 11.09 В 2 н/о 4/0
[Ac trans]
+20.8 +0.2 25 +21 +21 комфорт 1027.1 +26.8
21 11.09 В 2 н/о 3/0
[Ac trans]
+17.0 +1.1 34 +17 +17 1027.3
00 12.09 В 2 н/о ясно +16.0 +1.0 36 +16 +16 1027.6
03 12.09 В 2 50 км 9/0
[Ac trans]
+16.4 +2.1 38 +17 +17 1028.2
06 12.09 В 5 50 км 10/0
[Ac As]
+19.7 +3.0 33 +20 +21 1028.8 +15.5
09 12.09 В 3 50 км 9/0
[Ac lent]
+24.5 +3.2 25 +24 +26 комфорт 1028.2
12 12.09 В 2 50 км 9/0
[Ac trans]
+25.3 +2.7 23 +24 +26 комфорт 1026.8
15 12.09 В 1 50 км 9/9 1000 м
[Sc]
+23.4 +3.2 27 +23 +23 комфорт 1026.1 +25.7
18 12.09 В 1 н/о 3/0
[Ac trans]
+18.9 +1.5 31 +20 +20 1026.4 +25.7
21 12.09 СВ 3 н/о 9/0
[Ac trans]
+16.8 +2.9 39 +17 +17 1025.4
00 13.09 СВ 3 н/о 8/4 1000 м
[Sc Ci ing]
+15.4 +2.5 42 +15 +15 1024.9
03 13.09 СВ 2 50 км 9/9 1000 м
[Sc]
+14.7 +0.4 38 +15 +15 1025.3
06 13.09 В 3 50 км 9/9 1000 м
[Sc]
+20.0 +0.2 27 +20 +21 1025.3 +14.4
09 13.09 В 2 50 км 9/0
[Ac und]
+23.2 +0.6 22 +22 +26 комфорт 1024.9
12 13.09 штиль 0 50 км 8/0
[Ac und]
+24.3 +0.6 21 +23 +25 комфорт 1023.7
15 13.09 штиль 0 50 км 8/8 1000 м
[Sc]
+22.2 +1.9 26 +22 +22 комфорт 1023.0 +24.7
18 13.09 С 1 н/о 8/0
[Ac und]
+20.2 +2.7 31 +22 +22 комфорт 1023.3 +24.7
21 13.09 СВ 1 н/о 8/0
[Ac und]
+18.0 +2.9 36 +19 +19 1023.5
00 14.09 штиль 0 н/о 8/8 1000 м
[Sc]
+17.0 +4.0 42 +17 +17 1022.7
03 14.09 штиль 0 50 км 4/4 1000 м
[Sc diur, vesp]
+16.0 +4.0 45 +16 +16 1022.4
06 14.09 З 1 50 км 3/0
[Ci ing]
+23.8 +3.6 27 +23 +32 комфорт 1022.6 +15.9
09 14.09 З 1 50 км 6/6 1000 м
[Cu med, cong]
+26.0 0.0 18 +24 +29 комфорт 1021.5
12 14.09 З 1 50 км 5/5 1000 м
[Cu med, cong]
+27.1 +2.2 20 +25 +28 комфорт 1020.5
15 14.09 З 1 50 км 3/0
[Ac trans]
+25.4 -0.5 18 +24 +24 комфорт 1020.2 +27.5
18 14.09 З 1 н/о ясно +18.2 +1.3 32 +19 +19 1020.6 +27.5
21 14.09 З 1 н/о ясно +16.1 +1.7 38 +17 +17 1020.9
00 15.09 В 1 н/о ясно +15.0 +1.7 41 +16 +16 1020.9

 

Местоположение метеостанции Опорная (Мангистауская область, Казахстан): широта 46.13 долгота 54.58 высота над уровнем моря -4 м.

В архиве по умолчанию представлена погода в Опорной за последнюю неделю. Архивные данные за месяц целиком и за предыдущие месяцы, начиная с января 2011 года, Вы можете получить, выбрав интересующий диапазон дат из раскрывающегося списка и нажав кнопку "Ввод!".


*Определитесь, кто Вы:
робот инопланетянин человек

Внимание! Время в таблицах - всемирное. Для получения местного времени необходимо прибавить поправку, которая равна 4 ч.

Смотрите также архив погоды в соседних городах и на ближайших метеорологических станциях:

Погода в Кульсары (Атырауская область, Казахстан) (90 км)
Погода в Бейнеу (Мангистауская область, Казахстан) (102 км)
Погода в Саме (Мангистауская область, Казахстан) (144 км)
Погода в Макате (Атырауская область, Казахстан) (194 км)
Погода в Каракалпакии (Каракалпакстан, Узбекистан) (197 км)
Погода в Сай-Утесе (Мангистауская область, Казахстан) (218 км)
Погода в Атырау (Атырауская область, Казахстан) (231 км)
Погода в Сагизе (Атырауская область, Казахстан) (232 км)
Погода в Кызане (Мангистауская область, Казахстан) (256 км)
Погода в Махамбете (Атырауская область, Казахстан) (285 км)

Пояснения к столбцам:

Ветер - указаны скорость ветра в м/с - средняя за 10 мин, порывы в срок и между сроками (в фигурных скобках) и направление, откуда дует ветер: С - северный, СВ - северо-восточный, В - восточный, ЮВ - юго-восточный, Ю - южный, ЮЗ - юго-западный, З - западный, СЗ - северо-западный.
Видимость - горизонтальная дальность видимости в метрах или километрах. При видимости от 1 до 10 км при отсутствии осадков обычно наблюдается дымка, при ухудшении видимости до 1 км и менее - туман. В сухую погоду видимость может ухудшаться дымом, пылью или мглою.
Явления - указаны атмосферные явления, наблюдавшиеся в срок или в последний час перед сроком; фигурными скобками обозначены явления, наблюдавшиеся между сроками (за 1-3 часа до срока); квадратными скобками обозначены град или гололедные отложения с указанием их диаметра в мм.
Облачность - указаны через наклонную черту общая и нижняя облачность в баллах и высота нижней границы облаков в метрах; квадратными скобками обозначены формы облаков: Ci - перистые, Cs - перисто-слоистые, Cc - перисто-кучевые, Ac - высококучевые, As - высокослоистые, Sc - слоисто-кучевые, Ns - слоисто-дождевые, Cu - кучевые, Cb - кучево-дождевые. Подробнее классификацию облаков см. в Атласе облаков (PDF).
T - Температура воздуха - температура, измеренная на высоте 2 м над землей.
Td - Температура точки росы - температура, при понижении до которой содержащийся в воздухе водяной пар достигнет насыщения.
f - Относительная влажность воздуха - влажноcть воздуха, измеренная на высоте 2 м над землей.
Te - Эффективная температура - температура, которую ощущает одетый по сезону человек в тени. Характеристика душности погоды. При расчете учитывается влияние влажности воздуха и скорости ветра на теплоощущения человека.
Tes - Эффективная температура на солнце - температура, которую ощущает человек, с поправкой на солнечный нагрев. Характеристика знойности погоды. Зависит от высоты солнца над горизонтом, облачности и скорости ветра. Ночью, в пасмурную погоду, а также при ветре 12 м/с и более поправка равна нулю.
P - Атмосферное давление - приведенное к уровню моря атмосферное давление.
Po - Атмосферное давление - измеренное на уровне метеостанции атмосферное давление.
Tmin - Минимальная температура - минимум температуры воздуха на высоте 2 м над землей.
Tmax - Максимальная температура - максимум температуры воздуха на высоте 2 м над землей.
R - Количество осадков - Количество выпавших осадков за период времени, мм. При наведении курсора мыши на число - период времени, за который выпало указанное количество осадков.
R24 - Количество осадков - Количество выпавших осадков за 24 часа, мм.
S - Снежный покров - Высота снежного покрова, см. При наведении курсора мыши на число - состояние снежного покрова и степень покрытия местности в баллах.